Sigfox identifier Datetime Temperature Humidity SNR
003B8183 2018-10-09 08:55:09 20.7 39 14.6
003B8183 2018-10-09 07:54:10 20.7 39 14.8
003B8183 2018-10-09 06:53:14 20.7 39 14.9
003B8183 2018-10-09 05:52:13 20.7 38 15.1
003B8183 2018-10-09 04:51:14 20.7 38 15.2
003B8183 2018-10-09 01:48:20 20.8 38 15.1
003B8183 2018-10-09 00:47:23 20.7 38 15.3
003B8183 2018-10-08 23:46:25 20.8 37 15.6
003B8183 2018-10-08 22:45:28 20.8 37 15.2
003B8183 2018-10-08 21:44:29 20.8 37 15.3
003B8183 2018-10-08 20:43:31 20.7 37 15.6
003B8183 2018-10-08 19:42:33 20.7 37 15.5
003B8183 2018-10-08 18:41:37 20.7 37 15.5
003B8183 2018-10-08 17:40:36 20.7 37 15.6
003B8183 2018-10-08 16:39:39 20.7 37 15.7
003B8183 2018-10-08 15:38:39 20.5 37 15.7
003B8183 2018-10-08 14:37:41 20.5 36 15.7
003B8183 2018-10-08 12:35:42 20.3 37 15.7
003B8183 2018-10-08 11:34:42 20.1 35 15.5
003B8183 2018-10-08 10:33:40 20.1 35 15.3
003B8183 2018-10-08 08:31:39 20.1 36 15.4
003B8183 2018-10-08 07:30:46 20.2 36 15.2
003B8183 2018-10-08 06:29:44 20.3 37 15.3
003B8183 2018-10-08 05:28:43 20.3 37 15.2
003B8183 2018-10-08 04:27:44 20.3 37 14.9
003B8183 2018-10-08 03:26:40 20.3 37 14.8
003B8183 2018-10-08 01:24:41 20.3 38 14.7
003B8183 2018-10-08 00:23:45 20.3 38 14.6
003B8183 2018-10-07 23:22:41 20.4 38 14.7
003B8183 2018-10-07 22:21:40 20.5 38 14.9
003B8183 2018-10-07 21:20:41 20.5 38 14.8
003B8183 2018-10-07 20:19:42 20.5 39 14.5
003B8183 2018-10-07 19:18:43 20.5 39 14.2
003B8183 2018-10-07 18:17:43 20.5 39 14.3
003B8183 2018-10-07 17:16:40 20.5 39 18.1
003B8183 2018-10-07 16:15:39 20.5 39 17.9
003B8183 2018-10-07 15:14:37 20.5 39 18
003B8183 2018-10-07 14:13:38 20.5 39 17.8
003B8183 2018-10-07 13:12:34 20.5 39 17.7
003B8183 2018-10-07 12:11:34 20.5 39 17.5
003B8183 2018-10-07 11:10:32 20.5 39 17.5
003B8183 2018-10-07 10:09:31 20.5 39 17.6
003B8183 2018-10-07 09:08:31 20.6 39 19.8
003B8183 2018-10-07 08:07:34 20.6 39 19.8
003B8183 2018-10-07 07:06:32 20.6 39 19.8
003B8183 2018-10-07 06:05:30 20.7 39 19.9
003B8183 2018-10-07 05:04:30 20.7 39 19.9
003B8183 2018-10-07 04:03:27 20.7 40 19.8
003B8183 2018-10-07 03:02:25 20.7 40 19.9
003B8183 2018-10-07 02:01:25 20.7 40 19.9
003B8183 2018-10-07 01:00:27 20.7 40 19.9
003B8183 2018-10-06 23:59:21 20.7 40 19.8
003B8183 2018-10-06 22:58:21 20.7 40 19.8
003B8183 2018-10-06 21:57:24 20.7 40 19.7
003B8183 2018-10-06 20:56:26 20.7 40 19.7
003B8183 2018-10-06 19:55:23 20.7 40 19.7
003B8183 2018-10-06 18:54:26 20.7 40 19.7
003B8183 2018-10-06 17:53:28 20.7 40 19.7
003B8183 2018-10-06 13:49:30 20.8 40 19.8
003B8183 2018-10-06 12:48:27 20.7 40 17.5
003B8183 2018-10-06 11:47:28 20.9 40 17.6
003B8183 2018-10-06 09:45:29 20.9 40 17.5
003B8183 2018-10-06 08:44:27 20.9 40 17.5
003B8183 2018-10-06 07:43:26 21 41 17.6
003B8183 2018-10-06 06:42:25 20.9 41 17.7
003B8183 2018-10-06 04:40:22 21.1 41 17.7
003B8183 2018-10-06 03:39:20 21.1 41 17.6
003B8183 2018-10-06 01:37:22 21.1 41 12.7
003B8183 2018-10-06 00:36:22 21.1 42 12.8
003B8183 2018-10-05 23:35:24 21.3 42 12.8
003B8183 2018-10-05 22:34:24 21.3 42 12.6
003B8183 2018-10-05 21:33:23 21.4 42 12.6
003B8183 2018-10-05 20:32:23 21.3 42 12.7
003B8183 2018-10-05 19:31:26 21.4 43 12.6
003B8183 2018-10-05 18:30:24 21.4 43 12.6
003B8183 2018-10-05 17:29:26 21.4 43 12.6
003B8183 2018-10-05 16:28:26 21.4 43 12.6
003B8183 2018-10-05 15:27:27 21.4 43 12.7
003B8183 2018-10-05 10:22:22 20.7 34 12.8
003B8183 2018-10-05 09:21:15 20.7 33 12.8
003B8183 2018-10-05 08:20:18 20.7 32 12.8
003B8183 2018-10-05 05:17:14 20.7 32 13
003B8183 2018-10-05 04:16:11 20.8 32 12.9
003B8183 2018-10-05 03:15:13 20.8 32 12.4
003B8183 2018-10-05 02:14:13 20.9 32 12.1
003B8183 2018-10-05 00:12:15 20.9 32 12.1
003B8183 2018-10-04 23:11:18 21 32 12.4
003B8183 2018-10-04 22:10:14 21 32 12.6
003B8183 2018-10-04 21:09:16 21 32 11.9
003B8183 2018-10-04 20:08:20 20.9 31 11.1
003B8183 2018-10-04 19:07:19 20.9 31 11.1
003B8183 2018-10-04 18:06:18 20.9 31 10.7
003B8183 2018-10-04 17:05:11 20.8 31 10
003B8183 2018-10-04 14:02:04 20.7 33 10
003B8183 2018-10-04 12:00:00 20.7 34 9.2
003B8183 2018-10-04 10:58:57 20.8 35 8.6
003B8183 2018-10-04 09:58:00 20.5 46 0